User: anonymous   Login
Location: Unspecified
(0.0000°N, 0.0000°E)
Time: 06:41:41
(UTC+00:00)
Language:

COSMOS 2509 - Orbit

View from above orbital plane
View from above orbital plane
View from above satellite
View from above satellite

Ground track
Ground track

The orbit data is extracted from the following two-line orbital elements,

1 40922U 15050C   20223.74496786  .00000021  00000-0  78094-4 0  9993
2 40922  82.4917 329.0778 0015479  19.1416 341.0247 12.42881709221473
Epoch (UTC): 10 August 2020 17:52:45
Eccentricity: 0.0015479
inclination: 82.4917°
perigee height: 1482 km
apogee height: 1506 km
right ascension of ascending node: 329.0778°
argument of perigee: 19.1416°
revolutions per day: 12.42881709
mean anomaly at epoch: 341.0247°
orbit number at epoch: 22147

The dashed part of the orbit path shows where the satellite is in the earth's shadow,  

DLR